Theta_e
296 298 298 297 296 296 295 295 296 295 296 296 294 295 297 298 292 290 299 301 298 301 307 310 311 312 312 311 310 310 311 310 309 307 305 305 305 306 306 306 307 307 306 307 308 309 309 310 309 309 308 308 308 308 308 308 308 307 307 306 305 305 304 304 303 303 303 304 304 304 304 304 304 304 304 304 304 304 304 304 305 304 304 305 304 304 304
295 297 297 298 296 295 296 296 296 296 296 296 297 297 298 298 298 299 299 301 300 302 306 311 313 314 314 312 311 311 309 307 307 307 304 304 305 305 305 306 307 307 307 308 309 309 309 309 308 308 307 307 307 307 307 308 307 307 307 305 304 304 303 302 302 302 302 303 303 303 303 303 303 304 304 304 304 304 303 303 304 304 304 305 304 304 303
294 297 297 297 297 297 295 296 297 297 297 297 297 298 299 299 299 301 300 300 299 310 315 313 315 314 313 311 309 308 308 307 307 306 304 304 305 305 306 307 307 307 308 308 308 308 309 308 308 307 307 307 307 307 307 307 307 307 306 305 304 303 302 302 302 302 302 302 302 302 302 303 303 302 303 304 304 303 303 303 304 304 304 304 304 303 303
291 297 296 296 297 296 295 296 297 297 297 296 297 295 300 300 298 300 299 297 297 310 314 314 313 312 310 308 308 307 307 308 307 306 304 305 304 305 305 306 307 307 307 308 308 308 309 309 308 308 307 307 306 306 306 306 306 306 306 304 303 302 302 302 301 301 301 301 301 301 302 301 302 302 303 302 302 303 303 303 304 304 304 303 303 304 303
288 296 297 296 296 295 292 292 297 299 299 298 300 302 303 302 302 297 294 296 302 310 312 310 310 310 309 308 308 307 308 309 309 307 305 305 306 306 306 306 306 307 308 308 309 309 309 308 308 308 308 307 306 305 305 305 306 305 304 303 302 302 301 301 301 302 301 301 301 301 301 301 302 302 302 302 302 302 302 303 304 303 303 303 303 303 303
288 296 296 297 291 284 287 304 302 306 301 300 299 299 302 304 303 301 304 302 305 313 311 310 310 309 308 309 310 311 310 309 308 307 306 305 306 306 306 307 307 308 309 309 310 310 309 309 309 309 309 307 306 306 305 305 305 303 302 301 302 301 301 301 301 301 301 301 300 300 301 301 301 301 301 301 302 303 303 303 303 302 303 302 302 303 302
288 295 294 288 282 285 303 303 304 303 305 304 302 302 304 303 304 308 306 310 312 312 312 312 312 313 313 313 311 311 311 311 309 306 305 305 305 306 307 308 308 308 309 309 310 309 309 309 309 308 307 307 305 304 304 303 302 301 301 301 301 301 300 301 301 301 301 300 300 300 300 301 301 301 301 302 301 302 302 302 301 301 301 302 302 302 302
292 291 288 280 283 300 302 303 302 304 303 303 302 301 304 306 306 307 305 308 311 313 313 314 314 313 313 313 312 312 311 312 310 308 306 307 307 308 308 308 309 309 309 309 309 309 309 309 308 307 306 305 303 302 303 301 300 300 300 300 300 300 300 301 301 301 301 301 300 300 300 300 300 300 301 301 301 301 301 301 302 301 301 302 301 301 301
287 289 288 287 296 296 301 300 302 300 301 301 298 291 297 306 306 306 305 309 310 313 313 314 313 314 312 309 309 311 311 312 312 311 310 310 309 309 309 310 310 311 311 310 310 310 309 308 307 306 305 304 303 301 300 300 300 300 300 300 300 300 300 300 301 301 301 301 300 300 300 300 300 300 300 301 301 302 301 301 300 300 301 301 301 301 300
292 289 287 288 287 284 291 302 310 308 310 309 308 303 298 309 308 308 307 309 311 312 312 311 312 312 307 303 305 310 311 312 312 313 312 311 311 310 310 311 310 311 311 310 310 309 308 307 307 306 305 303 301 300 299 299 299 299 299 299 300 300 300 301 301 301 301 301 300 300 300 299 300 300 301 301 301 302 300 300 299 300 301 301 301 301 300
290 288 286 286 284 287 296 307 307 309 308 310 309 298 293 308 309 308 309 309 312 311 310 310 310 306 301 303 307 310 311 312 313 312 310 310 310 310 310 310 308 309 309 309 308 308 307 306 305 305 304 302 300 299 299 299 299 299 299 300 300 300 300 301 301 301 301 301 301 300 300 300 301 300 300 301 301 302 301 301 300 300 300 300 300 301 301
290 288 286 285 289 289 302 307 307 307 309 309 306 290 290 309 310 309 310 310 311 311 311 310 308 305 301 305 309 312 312 313 314 312 310 309 309 309 309 309 310 309 309 308 307 307 305 305 305 304 302 301 300 299 299 300 299 299 300 300 301 301 301 301 301 302 302 302 301 301 300 301 301 300 301 301 302 301 301 300 300 300 300 300 300 300 301
290 288 289 290 291 300 306 306 307 307 309 306 292 287 294 310 311 310 311 312 313 313 311 310 306 309 311 313 315 313 313 313 312 312 311 310 310 308 307 307 306 308 308 307 306 305 305 304 304 303 301 300 299 299 300 300 300 300 301 302 301 301 301 301 301 301 302 302 302 302 301 301 301 301 301 301 302 301 300 301 301 301 301 301 300 300 300
289 291 288 289 291 303 306 308 308 308 304 291 291 305 306 310 311 311 312 313 314 313 312 311 311 312 313 314 313 313 312 312 311 309 309 309 308 308 307 306 307 307 307 307 306 305 305 304 303 302 301 300 299 300 300 300 301 302 302 302 302 302 301 301 301 301 302 302 303 303 302 302 301 301 301 302 302 301 301 301 301 301 301 300 300 300 300
293 291 289 287 285 294 308 307 305 306 296 295 306 310 310 310 312 311 312 313 314 314 311 312 312 310 311 312 312 312 311 308 307 308 308 307 306 306 306 306 307 306 306 305 304 304 304 304 303 302 301 300 300 300 300 301 302 302 302 302 302 302 301 301 301 301 302 302 302 303 303 302 302 301 301 301 301 302 302 301 300 300 300 300 300 299 299
289 289 286 287 295 305 309 307 297 304 307 307 310 311 309 310 312 312 312 313 314 314 313 311 310 310 310 310 310 309 308 308 308 308 307 307 306 305 305 306 306 306 305 304 304 304 303 303 302 301 301 300 300 300 300 302 302 302 302 302 302 301 301 301 302 301 302 302 303 303 303 302 302 302 301 301 300 301 301 300 299 298 298 299 299 298 297
293 290 294 304 304 307 309 310 305 308 309 309 309 311 311 310 311 313 312 313 314 314 314 311 310 309 310 309 309 308 308 308 307 306 305 306 305 304 304 305 306 305 304 304 303 302 302 302 301 301 301 300 300 300 302 302 302 302 302 302 301 301 301 301 302 302 302 302 302 302 302 302 301 300 301 302 300 301 301 300 299 298 297 298 298 298 297
304 303 304 306 305 306 309 307 307 307 308 308 309 310 311 311 313 313 312 314 313 314 314 310 310 309 309 309 309 309 308 307 306 306 305 305 304 304 304 305 305 305 304 304 302 301 301 301 301 302 302 301 300 301 302 302 302 302 302 301 301 301 301 301 301 301 301 301 302 302 302 302 302 301 301 300 300 300 300 299 299 298 297 297 297 298 297
297 292 305 303 306 306 307 307 308 308 307 309 310 310 311 312 313 313 314 314 314 314 312 311 310 309 309 308 308 307 307 306 306 305 304 303 303 303 304 305 304 304 304 302 301 300 299 301 302 301 302 301 302 303 302 302 302 302 302 301 301 301 301 301 302 301 301 301 301 301 302 302 301 301 300 300 301 300 301 299 299 298 298 297 297 297 297
296 297 303 305 305 306 307 307 307 306 308 308 309 311 312 312 313 313 314 314 313 313 311 311 310 309 309 308 306 306 306 305 305 304 303 303 304 305 305 305 305 304 303 301 300 299 299 301 302 301 301 301 302 303 302 302 302 301 301 301 301 301 301 302 301 302 301 294 298 301 301 301 300 300 300 301 300 299 299 300 299 298 299 297 296 298 297
302 304 304 304 306 306 306 306 308 309 310 309 308 309 310 311 310 311 312 313 312 311 311 311 310 308 308 308 307 306 305 305 304 303 303 304 304 305 304 304 303 303 302 300 300 299 300 300 300 300 300 300 302 302 301 301 302 301 301 300 302 302 302 302 301 302 302 300 301 301 301 301 302 302 301 301 301 301 301 302 300 300 300 299 298 299 299
295 297 302 305 297 296 306 307 308 309 309 309 309 309 309 309 310 310 309 309 311 311 311 311 310 308 307 308 307 305 305 304 304 304 304 304 304 303 304 304 304 303 303 301 300 300 300 300 300 300 300 300 301 300 301 302 303 302 302 302 302 302 302 302 302 301 302 301 301 301 301 300 300 300 292 292 298 302 302 290 282 286 289 298 300 299 299
295 303 303 307 308 307 307 308 309 310 310 309 309 308 309 310 310 310 309 308 308 309 310 311 310 309 307 307 307 306 305 304 304 304 304 303 303 302 302 303 303 303 302 302 301 300 302 302 301 301 300 300 300 301 301 302 302 302 302 301 301 301 302 302 300 301 301 301 302 301 301 301 301 300 299 298 290 287 290 293 292 286 284 285 283 285 294
304 305 305 307 306 305 306 306 308 309 310 309 309 309 310 310 310 310 309 309 308 308 309 310 310 309 308 308 307 306 306 305 304 304 304 303 303 302 302 302 302 302 302 301 300 301 301 300 299 299 299 300 301 301 302 302 302 302 302 301 300 301 301 302 300 301 301 301 301 301 300 300 300 300 300 300 298 292 288 289 289 288 288 286 286 286 284
304 305 307 307 306 306 306 307 307 308 308 308 308 308 309 308 308 309 309 309 309 309 308 308 309 310 308 308 307 306 305 304 304 303 302 300 300 302 302 302 302 302 302 302 301 300 299 299 299 299 300 301 302 302 302 302 302 302 302 301 301 301 301 302 300 300 300 301 301 301 301 299 300 300 299 299 298 298 296 289 288 289 288 288 286 286 286
306 306 306 306 305 305 306 305 305 306 307 307 307 307 307 306 308 308 308 309 308 309 309 308 308 308 308 307 306 305 303 302 300 299 300 299 300 301 302 302 301 301 301 301 300 300 300 300 300 301 301 301 301 302 302 302 302 302 302 302 302 301 301 301 300 300 301 301 301 301 301 300 300 299 299 300 299 299 298 298 296 290 289 288 287 286 285
306 306 305 304 304 304 305 306 305 306 306 307 307 307 307 307 304 307 308 309 309 309 308 308 308 307 307 306 304 304 301 298 298 298 298 298 298 299 299 299 299 300 300 301 301 299 298 300 301 301 300 301 302 302 302 302 303 302 302 302 301 296 292 295 301 300 301 301 300 300 300 300 299 299 300 299 299 298 297 297 298 297 299 298 290 286 294
305 306 307 304 303 304 305 304 306 306 306 306 306 306 306 306 306 306 306 306 307 307 307 307 306 305 304 303 302 298 297 297 298 299 299 299 298 298 298 299 300 300 301 301 302 302 302 302 301 301 301 302 303 303 302 302 302 302 302 302 301 301 301 299 300 301 301 301 300 300 300 299 301 299 298 299 299 298 297 298 297 297 297 299 299 292 287
304 305 306 305 305 307 306 305 305 305 305 306 306 306 306 305 305 305 304 305 306 305 304 305 305 305 303 302 301 298 297 298 298 298 297 298 299 299 300 300 300 300 301 301 302 302 302 302 301 301 301 303 303 302 302 302 302 301 301 302 302 302 301 300 300 302 302 302 301 301 296 297 298 299 299 299 297 299 298 298 298 298 298 299 300 302 293
304 305 305 305 306 305 304 303 303 304 304 304 304 304 305 305 303 304 304 304 304 304 304 304 304 303 302 301 300 299 298 298 298 298 298 298 299 301 300 301 302 300 300 299 300 301 301 301 301 301 302 303 302 302 302 302 301 302 302 303 303 302 302 302 301 302 302 301 301 295 297 300 300 299 300 299 299 298 296 298 298 295 297 298 295 297 297
304 304 305 305 304 304 304 303 304 303 304 304 304 304 304 305 304 304 304 304 304 304 304 303 303 302 302 301 301 301 300 300 299 300 300 300 300 300 300 300 298 298 299 299 300 300 300 300 300 301 302 302 302 302 302 302 302 302 303 302 303 296 292 292 294 301 301 300 300 301 300 299 299 298 296 298 298 298 298 298 297 298 297 298 298 298 298
303 303 304 304 304 303 303 303 303 302 303 304 303 303 304 303 303 303 303 303 304 304 304 303 302 301 301 301 301 301 300 299 299 299 299 300 299 300 300 300 299 295 298 299 299 299 299 300 300 301 303 302 302 302 303 302 302 302 302 297 302 302 297 292 298 298 301 297 299 299 297 300 299 299 299 297 297 298 298 297 297 295 296 296 296 298 299
302 301 301 302 302 302 302 302 302 302 303 303 303 304 305 306 305 304 304 304 303 303 303 302 302 301 301 301 301 300 299 298 298 298 298 297 298 300 301 301 300 298 299 300 301 301 301 300 301 302 303 303 303 303 303 303 303 302 302 302 302 302 296 295 295 299 298 299 299 300 300 299 298 298 299 298 298 296 298 297 296 296 297 298 298 299 299
303 303 303 304 303 302 301 301 303 302 303 304 304 304 304 304 304 304 303 303 303 302 302 301 300 300 300 300 300 300 299 298 295 295 295 294 296 300 302 301 300 300 301 302 302 301 302 302 303 303 304 304 303 303 303 303 303 302 303 302 302 301 301 299 298 299 298 297 298 299 298 299 299 299 297 297 298 297 298 296 295 295 296 297 298 299 293
306 306 307 306 306 305 305 304 303 303 303 303 303 303 303 304 304 303 303 303 303 302 302 300 299 299 299 299 298 299 299 296 293 293 292 293 297 300 301 301 301 301 300 301 302 302 303 303 304 304 304 304 303 303 303 303 303 302 303 303 301 301 301 299 299 298 298 299 299 299 298 299 298 295 295 297 298 298 297 295 296 295 297 296 297 299 296
305 305 305 305 306 306 305 304 304 304 304 304 303 303 303 303 303 302 301 302 303 302 300 299 298 298 298 296 293 294 293 292 291 291 291 291 295 300 301 300 300 300 300 301 302 303 304 304 294 294 304 303 303 303 303 303 303 303 303 303 301 301 300 299 300 299 299 299 299 298 299 295 295 296 296 298 299 298 298 299 298 297 297 297 297 297 299
305 305 305 305 305 306 305 304 304 304 304 304 303 303 302 302 302 302 302 302 301 300 299 299 298 297 296 296 295 294 294 293 292 292 292 292 295 299 301 301 301 300 301 300 301 303 303 304 294 290 299 302 302 303 304 293 303 303 303 302 302 301 300 300 300 300 300 300 299 298 296 295 298 298 295 298 298 297 297 297 298 298 297 296 296 296 295
305 305 306 305 305 306 306 305 305 305 305 304 304 303 302 302 302 302 301 300 300 300 299 299 299 299 298 296 295 292 291 292 292 291 291 291 296 299 300 300 300 300 299 300 303 303 304 300 289 297 303 302 302 303 302 291 294 302 303 302 302 301 299 299 299 298 300 300 297 299 298 297 298 297 298 298 297 298 297 298 296 297 298 298 297 296 295
304 305 306 305 305 306 306 305 305 305 305 303 303 303 303 303 302 302 301 300 301 300 300 300 300 298 296 296 295 296 294 291 290 292 292 295 298 299 300 301 301 301 301 304 304 304 303 298 303 303 301 302 303 304 298 288 291 302 302 303 303 301 300 299 299 298 298 300 300 299 299 297 298 297 297 299 299 296 295 298 297 297 298 298 298 297 297
304 305 305 305 304 305 305 304 304 304 305 305 303 302 302 301 301 301 301 300 300 299 300 300 299 297 297 297 297 297 297 297 295 295 296 297 299 300 301 302 302 302 302 295 302 304 298 291 299 303 302 303 303 303 302 293 292 300 302 302 302 300 300 299 299 299 299 299 298 294 298 297 298 297 296 298 298 297 297 298 297 296 297 297 298 298 297
305 305 305 304 304 304 304 304 304 304 304 304 304 304 303 302 301 301 300 300 300 301 301 301 300 299 299 299 299 299 299 297 298 298 298 299 299 299 299 299 302 303 302 302 303 302 296 296 301 302 302 303 303 298 304 292 297 301 301 301 300 300 299 299 298 299 299 299 297 298 298 298 298 297 296 297 297 297 297 298 297 298 299 298 298 298 299
305 305 305 304 304 304 304 304 304 303 304 304 303 304 304 303 302 301 301 302 301 301 301 301 296 301 302 301 301 300 299 299 298 299 300 299 299 300 297 300 302 302 298 297 298 299 300 302 301 296 302 302 301 294 294 299 300 301 301 300 300 299 299 298 298 298 299 299 299 299 298 298 298 298 298 298 297 298 297 298 298 298 298 299 298 299 299
305 304 304 304 304 304 304 304 303 303 303 304 304 304 304 303 303 303 302 301 301 301 301 301 299 297 300 301 301 300 299 299 298 299 300 302 303 303 300 301 303 304 291 299 301 302 301 302 301 301 296 299 300 290 290 302 302 301 300 300 299 299 299 299 299 298 299 299 299 299 299 298 298 298 297 298 299 298 298 298 298 298 298 299 299 298 298
305 305 304 304 304 304 304 304 303 303 303 303 304 304 304 303 303 302 301 300 300 300 300 300 300 300 300 301 300 300 299 299 299 300 300 300 301 303 304 302 303 299 290 299 301 301 301 301 301 297 290 291 291 289 299 302 301 301 301 300 301 300 299 299 299 300 300 298 299 299 299 298 298 299 299 297 297 298 298 298 298 298 298 299 299 299 299
304 304 304 304 304 304 304 303 303 303 303 304 304 303 303 303 303 303 302 301 300 300 298 300 300 300 301 301 301 301 301 301 301 300 299 298 298 300 303 296 302 299 296 293 300 300 300 301 297 291 291 290 289 288 302 302 301 301 301 301 301 300 300 299 299 300 299 299 300 300 300 300 300 299 299 298 295 297 297 297 299 298 298 298 299 298 299
304 305 305 298 304 304 304 304 305 305 304 303 303 302 302 303 303 303 302 302 301 301 301 302 301 301 302 302 301 302 302 301 302 302 302 301 299 301 303 297 301 297 292 291 299 299 300 292 290 289 289 288 288 295 301 301 300 301 301 301 301 300 300 300 300 300 300 299 299 300 300 300 300 300 300 300 299 299 297 296 296 298 298 299 299 299 299
304 304 305 305 304 305 305 305 305 304 304 303 302 301 301 303 302 303 303 303 303 302 302 303 302 302 303 302 301 300 300 300 301 302 302 302 302 299 298 294 293 290 291 298 299 300 299 301 291 288 288 288 288 299 301 301 301 301 301 301 300 301 301 301 301 301 301 301 299 299 296 299 301 301 300 298 300 299 299 298 298 298 299 298 297 298 297
304 304 304 304 304 304 305 304 303 303 302 301 303 302 303 303 303 303 304 303 303 303 303 303 303 303 303 303 303 303 302 301 298 300 302 302 303 302 302 301 299 291 291 291 293 293 291 291 290 288 288 287 294 300 301 301 301 301 301 301 301 301 301 302 301 301 301 300 300 300 300 301 301 301 301 301 301 301 300 299 298 298 299 298 298 299 299
305 304 305 304 304 304 304 303 302 301 302 303 302 303 303 303 303 302 302 303 303 302 303 303 303 303 304 302 302 303 303 303 301 299 302 303 303 302 302 298 290 288 293 298 300 300 294 289 288 288 287 288 298 300 301 300 300 299 299 300 301 301 301 301 301 302 301 301 301 301 301 301 301 301 301 301 300 301 300 300 301 299 299 299 298 299 298
305 304 304 304 304 303 303 303 302 303 303 303 303 304 304 303 301 302 301 302 302 300 303 303 303 303 304 303 303 303 304 303 303 303 303 303 303 303 301 302 300 292 292 299 301 300 293 288 288 288 291 297 298 299 300 300 301 300 301 300 299 300 299 298 294 295 299 300 301 300 300 300 301 300 300 300 301 300 300 299 299 296 291 294 298 298 298
304 303 303 302 304 305 305 304 304 304 304 304 304 303 302 302 302 301 302 302 302 301 301 302 302 303 303 303 303 303 304 304 302 298 302 302 303 298 297 300 301 294 296 297 299 300 301 301 300 294 294 296 299 300 300 301 301 300 298 301 301 301 300 300 299 301 301 300 300 300 300 301 301 301 301 300 300 300 300 300 299 299 299 299 299 297 299
305 305 305 305 305 305 305 305 305 304 304 304 304 303 303 302 302 302 302 294 302 302 301 301 300 302 303 303 302 303 303 303 302 302 299 302 303 303 299 295 302 298 298 298 300 302 301 301 297 292 292 297 299 299 294 294 299 301 301 299 298 302 300 300 300 300 301 301 300 301 300 300 301 300 300 300 300 299 299 299 299 298 298 298 299 299 299
Wind_Speed
2 4 5 5 8 12 14 16 15 18 17 18 19 16 15 11 8 6 9 10 11 9 15 17 19 19 18 17 18 17 16 16 17 18 19 17 19 18 18 18 17 17 17 16 16 15 13 14 14 14 13 13 12 11 11 10 10 10 9 9 9 9 8 8 8 7 7 6 7 7 7 7 7 7 7 7 7 7 7 7 6 7 8 8 8 8 8
4 3 4 3 5 7 8 12 16 16 17 18 18 17 17 15 10 10 5 7 9 7 10 16 14 13 13 14 14 14 17 18 19 18 16 17 19 19 19 18 17 16 16 17 16 15 15 15 15 14 13 13 12 12 11 10 10 10 9 9 9 9 9 8 8 8 8 7 7 7 7 8 8 7 7 7 7 7 8 7 7 7 8 8 8 8 8
7 5 4 2 2 2 7 10 12 13 15 17 18 16 16 16 15 6 7 8 9 3 2 11 12 12 12 13 16 18 18 18 20 20 18 17 20 20 19 19 18 17 17 18 17 16 15 15 15 14 13 12 12 11 11 10 10 10 9 9 9 9 9 9 8 8 7 7 7 8 8 8 7 8 8 7 7 7 8 7 7 7 8 8 8 7 8
7 7 5 4 3 5 8 8 9 10 10 12 15 14 11 12 12 12 12 11 10 6 8 12 15 15 16 18 19 18 18 20 21 22 20 22 21 21 20 19 18 18 19 18 17 16 15 15 15 14 13 12 12 11 10 10 10 10 10 10 10 10 10 9 9 8 8 8 8 8 8 8 8 8 7 7 7 7 7 8 7 7 8 8 8 7 7
6 6 5 5 5 6 8 10 11 11 11 13 9 9 9 15 14 12 10 11 10 9 13 15 15 16 16 17 20 20 21 22 22 22 20 19 21 21 21 20 20 20 19 17 17 16 15 14 14 14 13 12 11 11 10 10 10 10 10 10 10 10 10 9 9 8 8 8 9 8 8 8 7 7 8 8 8 7 8 7 7 8 9 8 8 8 7
6 7 5 3 6 9 6 3 5 3 9 12 12 12 11 12 13 9 9 9 8 14 15 16 16 18 22 21 18 18 19 21 21 19 18 18 19 21 20 20 20 20 17 15 15 16 15 15 14 14 13 12 11 11 11 11 11 11 11 11 10 11 10 10 9 9 9 9 9 9 8 8 8 8 8 8 7 6 6 7 7 8 9 9 8 8 8
6 6 5 6 11 7 4 2 2 2 4 4 12 8 9 13 14 4 3 5 11 15 16 18 19 17 14 13 18 18 19 20 20 20 20 20 19 22 20 20 19 19 18 18 17 16 15 15 14 14 13 12 12 11 11 12 11 12 12 12 11 11 10 10 9 9 9 9 9 9 8 8 8 8 8 7 7 7 6 7 7 7 7 8 8 8 8
2 4 7 9 7 4 4 3 2 3 1 1 1 6 8 9 13 12 11 7 7 9 8 9 10 11 14 13 14 17 18 20 19 21 20 22 22 23 21 22 21 20 19 20 18 17 15 15 14 13 13 13 13 12 12 12 12 12 12 12 12 11 10 10 9 9 9 9 8 8 8 8 8 8 7 7 7 7 6 6 7 7 7 7 8 9 8
6 6 8 8 5 2 6 2 6 9 6 9 10 7 11 16 14 13 11 8 8 9 9 10 11 12 12 11 10 14 17 20 21 21 20 22 22 22 21 21 21 19 19 19 18 17 15 15 14 14 14 13 13 13 13 13 13 13 12 12 11 11 10 10 10 9 9 9 8 8 8 8 8 8 7 7 6 6 7 7 7 7 7 7 7 8 9
7 6 8 8 7 9 6 5 4 10 2 4 4 3 3 10 13 13 12 11 12 12 12 13 14 14 11 9 12 17 19 20 22 21 20 21 21 21 21 20 19 19 18 17 17 16 17 16 15 14 14 14 14 14 14 14 13 13 12 12 11 11 10 10 9 9 9 8 8 8 8 8 7 7 6 6 6 5 7 7 7 6 6 6 7 7 8
7 8 8 8 7 5 1 7 6 9 3 3 3 3 7 10 15 16 14 13 14 15 17 16 16 12 9 12 12 16 21 22 23 22 20 20 20 20 21 22 21 19 18 18 18 17 17 17 16 16 15 16 15 15 14 14 13 13 12 12 11 11 10 10 9 9 8 8 8 8 8 7 6 7 6 6 5 5 5 6 6 6 6 6 6 6 6
7 8 9 9 5 3 5 7 8 9 6 4 4 5 5 8 15 16 15 15 17 16 18 18 15 14 10 10 10 19 21 22 22 20 21 21 22 22 21 20 21 21 20 19 19 18 18 17 17 17 17 15 16 15 15 14 13 13 12 12 11 11 10 10 9 8 7 8 7 7 8 7 6 6 5 5 5 5 5 6 6 5 5 6 6 6 6
7 10 8 6 4 4 5 7 9 9 7 4 6 8 1 3 9 13 14 14 15 17 17 16 13 11 3 5 13 22 22 22 21 19 20 20 21 21 20 19 19 18 18 18 19 19 17 18 17 17 16 16 16 15 14 13 13 13 12 12 12 11 10 10 9 9 7 7 7 7 7 6 6 6 5 5 5 5 6 5 5 5 5 4 5 5 5
9 8 10 8 4 5 7 7 9 8 6 5 7 2 2 1 8 8 10 11 13 15 15 11 4 2 5 11 19 21 22 21 20 22 22 23 22 22 22 23 22 20 19 19 19 18 17 18 17 16 16 16 16 15 14 14 14 12 12 12 11 11 10 10 9 8 8 7 6 6 6 6 6 6 5 4 4 4 5 5 5 5 4 4 4 4 4
6 4 8 7 11 3 11 13 6 1 3 1 3 2 3 2 5 10 8 9 11 13 12 10 6 9 11 15 19 20 21 22 22 22 23 23 23 22 22 22 21 20 19 20 20 19 18 18 17 16 17 17 16 15 14 15 13 12 12 11 11 11 10 10 9 8 8 8 6 5 5 5 5 5 4 4 4 3 3 3 4 4 5 4 4 5 5
7 7 8 5 1 6 13 12 2 8 1 4 3 2 3 2 4 8 7 8 10 12 12 11 9 10 13 16 18 18 19 20 20 21 21 21 21 21 21 22 22 22 20 19 18 18 17 16 16 16 17 17 16 15 16 14 13 12 12 11 11 10 10 9 9 8 8 7 6 6 6 5 4 4 4 3 3 3 3 3 3 4 4 4 4 5 6
7 4 2 5 3 6 10 2 5 5 3 4 4 4 3 3 4 6 5 8 10 12 11 11 11 12 13 16 19 19 19 20 21 21 22 22 22 21 22 22 22 20 20 21 19 19 17 17 15 16 16 17 18 16 15 14 14 13 12 11 10 10 10 9 9 8 7 6 6 5 5 4 4 4 3 1 3 2 3 3 4 4 4 5 5 5 5
0 2 2 1 2 5 8 4 5 4 2 1 3 3 0 1 3 6 5 8 10 12 12 12 11 11 14 17 17 17 18 19 20 20 20 19 19 20 20 21 22 21 20 20 20 20 18 18 16 16 16 16 18 16 15 14 13 13 12 11 11 10 10 9 9 8 7 7 6 5 4 3 2 2 2 2 2 2 2 3 3 4 4 4 5 5 5
2 3 5 2 3 2 5 6 4 1 0 1 2 1 2 1 3 6 5 8 11 12 13 13 12 14 16 16 15 16 17 19 20 21 21 19 20 21 22 22 22 20 20 19 20 19 18 17 16 16 17 16 16 14 15 14 13 12 12 11 10 9 9 9 8 7 7 6 6 5 4 3 3 2 2 2 1 1 1 2 3 3 4 4 5 5 5
6 1 4 2 1 1 2 5 6 5 3 3 2 1 1 1 3 5 5 7 9 11 12 12 13 15 16 17 16 16 17 18 19 20 20 21 20 21 22 23 22 21 21 21 21 20 18 17 15 16 16 16 15 15 15 13 12 12 11 11 10 9 9 8 7 7 6 5 3 5 4 3 3 3 2 1 1 2 3 3 3 3 3 4 4 5 5
5 1 3 1 2 5 7 8 8 5 3 4 3 2 2 3 5 6 6 7 9 11 11 12 14 16 16 16 18 18 17 18 18 19 20 21 22 21 22 22 21 20 21 21 21 20 18 16 15 15 16 16 15 16 13 12 12 12 11 11 10 10 9 8 7 6 6 7 5 4 5 4 2 1 2 2 2 3 3 4 5 5 4 3 4 4 4
5 5 2 5 3 2 5 6 8 9 6 3 3 4 5 5 6 7 8 8 8 9 11 13 14 15 15 16 17 18 17 18 19 20 21 21 22 21 21 20 21 21 21 21 21 19 17 16 15 15 15 14 13 14 14 13 13 12 11 10 10 9 8 7 7 7 6 6 6 4 4 5 5 4 6 5 6 4 5 6 5 4 4 4 5 5 5
1 5 4 2 4 2 5 3 3 6 7 6 6 6 5 6 6 7 9 10 10 11 11 12 14 14 15 16 17 17 16 19 20 21 22 21 20 19 18 19 20 21 20 20 20 19 15 14 13 13 12 13 15 15 14 13 13 12 11 9 8 8 8 7 7 7 6 6 5 5 4 4 5 5 6 6 5 3 5 6 4 4 2 4 3 4 3
3 3 5 2 2 2 4 2 3 5 4 5 5 4 4 5 6 8 8 10 11 11 12 12 13 14 15 16 17 17 17 18 19 20 19 19 18 18 17 17 19 20 19 20 19 16 13 12 12 13 14 14 15 15 14 13 13 11 11 9 8 8 8 7 7 7 6 6 5 5 5 5 4 4 4 6 7 7 8 6 7 7 7 6 6 5 6
3 5 3 2 2 3 3 2 2 3 2 1 2 3 4 5 5 6 8 8 9 11 12 12 12 12 15 16 16 16 16 14 10 9 16 16 15 17 19 20 20 19 17 16 14 14 13 13 14 15 15 14 14 14 13 13 13 11 11 10 9 8 8 8 8 8 6 6 6 6 5 5 4 4 4 3 4 7 6 8 10 11 10 10 9 9 8
2 2 3 3 3 2 2 3 3 3 4 2 2 3 4 3 4 6 7 7 8 10 11 12 12 12 14 15 13 14 17 18 19 13 9 12 14 14 17 18 15 12 13 14 15 16 16 18 17 15 14 14 14 14 13 13 12 11 11 10 9 8 8 8 9 8 7 6 6 6 5 5 5 4 3 3 1 1 4 7 6 4 6 9 11 10 9
1 2 4 3 3 2 3 2 2 5 3 2 2 3 4 5 5 5 6 6 8 10 10 11 13 13 11 12 15 18 18 17 15 12 9 9 14 12 11 11 12 14 15 15 16 17 18 18 16 15 15 14 14 13 13 13 12 11 11 10 9 6 7 8 8 8 7 6 6 5 5 5 5 4 4 3 2 3 2 2 2 1 4 7 9 11 9
2 3 2 3 2 3 5 3 2 4 3 2 3 4 5 6 7 7 8 8 9 10 10 12 14 15 14 14 15 15 16 19 18 15 12 9 8 9 12 13 14 15 14 15 15 15 15 15 15 16 15 15 14 13 13 12 12 11 11 10 9 9 9 9 8 7 7 6 6 5 5 5 4 4 3 4 4 3 2 2 3 3 3 1 4 12 14
3 3 1 2 4 4 6 4 4 4 4 3 3 4 7 8 8 8 9 9 10 11 11 12 13 15 15 15 16 17 15 14 16 18 14 10 7 9 11 11 11 12 12 14 15 15 16 16 16 16 15 14 14 14 13 12 12 11 10 9 8 8 8 9 9 7 7 6 6 5 5 4 5 5 4 4 3 3 3 3 2 3 4 3 4 5 9
3 1 1 1 3 5 6 5 5 5 4 5 6 6 8 9 9 9 10 11 11 11 11 13 13 12 14 16 16 17 17 17 15 12 12 10 10 8 10 9 8 11 13 14 14 15 17 17 16 16 14 14 14 13 13 12 11 12 11 10 8 8 8 9 9 8 7 7 6 5 5 6 5 5 5 5 4 4 4 3 2 4 4 3 2 5 5
4 2 1 2 5 5 5 5 5 5 5 5 6 7 8 9 9 9 11 11 11 11 13 13 13 14 14 15 15 15 15 16 15 15 14 14 13 12 11 10 10 7 7 9 10 12 14 15 15 14 13 14 14 14 13 12 11 11 10 9 8 6 5 9 9 9 8 7 7 7 7 7 7 6 5 5 5 5 5 5 4 4 4 4 4 4 4
7 5 5 5 5 5 5 4 4 5 5 6 7 8 9 9 10 11 10 10 11 12 13 14 15 15 13 13 14 13 14 14 14 14 14 14 13 12 12 11 10 9 9 8 10 12 14 15 15 14 13 14 15 14 13 12 11 10 9 9 8 8 7 8 9 9 7 7 7 7 7 7 7 7 7 7 7 6 6 5 4 3 3 4 4 3 3
9 8 7 7 6 7 6 6 5 6 7 8 7 7 7 8 8 9 9 9 11 12 12 12 12 13 13 14 13 14 14 14 13 13 13 12 12 13 14 12 13 12 12 12 14 16 16 15 15 14 14 15 15 15 14 13 11 10 9 8 8 7 9 9 9 9 9 8 7 7 7 8 7 8 7 7 7 6 6 5 4 4 5 5 4 4 1
8 7 7 10 9 8 8 7 5 6 6 6 6 7 7 8 8 9 9 10 11 12 11 12 12 12 11 13 14 14 15 14 10 10 10 10 9 14 15 15 14 14 14 16 17 15 14 14 14 13 13 14 15 14 14 14 11 10 9 9 8 8 8 8 9 9 9 9 8 8 7 7 7 7 7 7 7 7 6 6 6 6 4 5 5 4 7
2 3 3 7 6 4 6 7 7 7 7 7 8 7 7 7 8 9 10 11 12 11 11 12 12 12 13 12 13 14 15 12 11 12 11 10 10 12 14 13 13 15 17 17 17 15 15 14 14 13 13 13 15 13 13 14 12 10 10 9 9 8 8 8 9 10 10 8 8 8 8 8 8 8 7 7 7 7 6 7 7 6 6 5 5 5 4
3 3 3 5 4 4 6 6 6 7 7 7 7 7 7 7 8 10 11 10 10 11 12 13 12 12 11 11 9 9 10 10 10 10 9 10 9 11 14 16 16 17 17 16 16 16 15 14 14 12 11 12 12 13 14 13 12 11 10 9 9 8 8 8 9 9 9 9 9 8 8 8 7 7 7 8 8 8 7 7 7 7 7 7 6 6 3
2 2 4 5 4 5 7 6 6 7 7 7 7 7 7 8 9 9 9 9 10 11 12 12 12 13 12 11 10 8 7 8 7 9 8 7 8 13 15 16 16 16 15 15 16 15 14 12 12 14 12 11 12 13 13 11 11 11 10 9 9 9 9 9 9 9 9 9 9 8 8 7 8 8 8 8 8 8 8 8 7 7 7 7 6 4 6
1 1 4 4 4 6 7 5 5 6 6 7 7 7 7 7 8 9 9 9 11 12 12 13 14 13 11 8 7 7 7 8 9 8 8 9 11 12 14 14 14 13 14 13 13 13 12 12 17 13 13 12 12 12 10 13 11 11 9 9 9 9 9 9 9 10 9 9 9 9 8 8 8 8 8 9 9 9 8 8 8 7 7 7 6 7 6
3 2 3 3 3 5 6 5 5 5 7 8 7 7 7 8 9 9 9 10 11 12 13 13 12 11 11 12 11 10 9 7 8 8 9 11 13 14 13 13 13 13 11 11 12 13 9 12 12 13 14 12 13 14 12 14 12 10 10 9 9 9 9 10 10 10 10 9 9 9 9 9 9 8 8 8 8 8 8 9 8 7 8 7 7 7 7
3 4 5 5 5 5 6 7 6 5 6 6 7 7 7 8 9 9 9 10 10 12 12 12 13 11 12 13 13 12 12 12 11 11 13 12 12 13 12 12 12 12 11 11 12 11 11 13 12 12 12 13 12 12 9 13 11 10 11 9 9 9 9 10 10 10 10 10 10 9 9 9 9 9 9 9 8 8 8 8 9 9 9 8 8 8 7
4 4 5 5 5 5 6 7 6 5 5 6 7 8 8 8 9 9 10 10 11 12 12 13 13 12 14 14 14 13 13 12 13 14 14 13 13 13 12 13 13 12 13 12 12 9 14 12 13 14 12 13 12 12 9 13 11 11 11 10 10 9 10 10 10 10 10 10 10 9 10 10 10 10 10 9 9 9 9 9 9 9 9 9 9 8 8
5 5 6 6 5 6 7 7 6 6 6 6 6 7 9 9 9 9 9 9 10 11 11 12 12 12 13 13 12 12 13 13 13 13 14 14 14 13 12 12 12 11 11 12 9 9 11 12 12 13 13 13 12 12 9 10 10 12 12 11 10 10 9 9 10 10 10 10 10 10 9 9 10 10 10 10 10 10 9 9 9 9 9 9 9 8 8
6 7 7 6 6 6 7 7 7 7 7 6 6 7 8 9 9 9 9 10 11 11 11 11 10 9 11 12 12 12 12 12 13 13 12 13 14 14 13 11 11 10 14 13 12 10 11 12 13 13 13 12 11 13 12 10 11 12 12 12 11 11 10 10 9 10 10 10 10 10 10 9 10 10 10 10 10 10 10 10 10 9 9 9 9 9 9
7 6 6 6 6 6 7 8 8 7 8 7 7 7 8 7 8 9 9 10 10 10 11 10 11 11 11 11 11 11 10 11 11 11 11 11 12 14 14 12 9 11 17 12 11 11 11 12 12 14 14 13 10 14 12 12 12 12 12 12 11 11 11 11 11 10 10 10 10 10 10 10 10 9 10 9 10 10 10 9 9 9 10 10 9 9 9
8 7 7 7 7 6 7 8 9 8 8 7 7 7 8 8 8 9 9 10 10 10 10 10 10 11 10 10 10 10 9 10 10 11 11 11 12 12 12 12 9 10 13 13 11 12 11 11 12 13 13 14 12 12 10 12 12 12 12 12 12 12 12 12 11 11 11 11 11 10 10 10 10 10 10 10 10 10 10 10 10 10 10 10 10 10 10
9 8 8 7 7 7 7 8 8 8 8 7 7 7 8 8 9 8 9 10 10 10 10 10 10 11 11 10 10 10 10 9 10 10 11 11 12 11 11 11 9 7 13 14 11 12 12 13 12 12 14 14 13 10 10 11 11 12 12 13 12 12 12 12 12 12 12 11 11 11 11 11 10 10 10 10 10 10 10 10 11 11 10 10 10 10 10
9 9 9 8 8 8 7 8 9 9 8 7 8 7 7 8 8 8 8 9 10 10 10 10 10 11 11 11 10 10 10 10 9 10 11 12 11 11 10 13 10 12 12 10 11 12 11 9 11 12 13 13 13 10 10 11 12 12 12 12 12 12 12 12 13 12 12 12 12 12 11 11 11 11 10 11 11 11 11 11 11 11 11 11 11 11 11
10 9 9 9 8 8 7 7 8 9 9 9 10 8 8 8 8 8 8 9 9 10 10 10 10 11 12 12 11 11 9 9 8 10 10 10 10 11 10 10 10 12 13 10 10 10 10 10 13 14 14 12 10 9 11 11 12 12 13 13 13 13 13 12 12 13 13 12 12 12 12 12 12 12 12 12 11 11 11 11 9 10 11 10 11 12 12
10 10 9 9 8 8 8 8 8 9 10 10 10 9 9 9 9 9 8 8 9 8 9 9 10 10 10 10 10 10 10 10 10 9 10 10 10 10 10 10 12 14 12 10 10 10 11 11 11 13 14 12 9 10 11 13 13 13 13 13 13 12 13 13 13 13 12 13 13 12 12 13 13 12 12 12 12 12 11 12 12 9 9 9 11 12 12
9 9 9 8 9 9 9 9 9 9 9 10 11 10 9 8 9 9 9 8 8 8 8 8 8 8 8 8 8 8 8 9 10 10 10 12 13 12 10 10 10 12 13 10 11 10 10 14 13 11 10 9 10 10 11 13 13 13 13 13 13 13 13 12 11 12 13 13 13 13 12 12 12 12 12 12 12 11 12 10 9 12 14 12 11 9 9
9 10 9 9 9 9 10 10 9 9 9 9 10 10 9 9 11 10 9 9 9 9 9 8 8 9 8 8 8 8 8 8 8 9 8 8 10 11 12 11 9 10 11 10 10 11 11 10 10 10 10 10 10 11 11 12 12 13 12 12 13 12 13 12 12 13 13 13 13 14 13 12 12 12 12 12 12 11 11 11 9 9 9 10 10 9 9
9 9 8 8 8 8 9 9 9 9 8 8 9 9 9 10 12 11 9 11 10 9 9 9 9 9 9 8 8 8 8 8 8 8 8 8 7 9 10 11 10 10 10 10 10 10 10 10 10 12 12 11 11 11 12 12 12 12 12 12 12 13 12 12 12 12 12 13 13 13 13 13 12 12 11 12 11 11 11 9 9 8 9 7 8 8 9
Wind_Direction
100 47 76 136 194 212 202 208 206 208 209 210 214 218 223 218 217 230 158 182 217 200 177 187 190 187 185 180 184 185 177 168 165 161 161 159 158 155 157 158 159 157 156 157 157 153 146 138 130 126 127 127 128 132 134 131 129 128 125 120 116 112 109 103 98 97 95 89 86 84 81 78 76 74 72 70 71 71 69 67 58 55 55 57 59 62 60
197 115 98 91 197 204 225 220 215 211 212 213 215 217 219 222 222 235 222 184 216 223 196 187 184 176 173 173 175 173 174 171 168 165 156 158 163 162 160 161 161 160 158 159 160 152 146 140 135 133 133 134 136 138 136 134 133 130 126 122 117 115 110 107 106 102 98 94 88 84 82 79 76 75 74 73 71 69 66 63 60 55 58 58 58 59 59
195 148 138 191 227 226 217 221 229 222 218 214 213 219 219 221 231 216 232 220 229 110 122 155 152 158 163 170 178 180 174 169 170 168 163 159 166 165 164 164 164 162 162 164 159 151 147 142 139 138 138 137 138 136 136 137 134 134 130 124 120 117 113 110 108 103 96 93 91 86 81 80 79 76 75 74 72 69 66 62 61 60 57 62 59 56 57
205 169 208 197 216 249 248 241 216 214 218 219 211 217 199 206 211 213 221 224 227 142 148 142 156 164 171 179 181 178 179 175 172 173 166 169 168 168 167 166 164 165 165 164 157 151 147 144 141 141 140 140 141 138 137 135 136 136 130 126 123 120 117 117 113 105 100 96 90 86 82 78 77 78 79 77 74 71 71 68 64 62 61 59 59 57 56
217 162 196 208 228 242 242 234 224 213 211 222 216 212 201 212 216 213 205 221 228 167 151 153 166 173 174 181 186 185 184 182 179 175 164 163 169 169 168 166 168 168 168 162 155 150 148 147 145 143 142 143 141 137 136 135 135 134 133 130 127 124 123 118 111 106 103 98 92 88 82 80 79 80 78 79 78 76 72 70 69 63 59 58 55 51 52
206 162 174 182 232 230 228 59 14 328 216 191 198 201 201 210 211 224 225 236 199 148 164 168 166 175 188 188 184 185 184 180 180 171 162 163 165 168 168 170 170 170 165 160 155 152 148 146 145 142 143 140 135 134 135 137 139 138 134 131 129 126 125 120 115 110 105 99 94 90 86 82 81 79 79 76 78 78 79 75 68 65 61 57 53 50 45
207 169 183 218 230 231 70 101 64 26 14 230 219 217 210 206 208 212 189 161 157 172 176 181 180 182 169 171 178 184 187 185 176 164 161 163 167 171 171 171 170 167 161 160 157 150 149 146 143 143 141 138 137 139 142 141 141 138 135 131 129 128 125 122 118 114 108 102 98 95 90 86 82 79 76 76 74 74 73 67 65 62 57 56 53 48 43
182 186 201 222 231 74 122 118 138 91 128 176 124 250 219 208 207 204 214 202 187 175 168 159 159 162 161 165 178 185 186 186 174 167 167 166 164 171 173 172 171 164 162 163 157 150 145 143 146 145 142 142 143 143 144 142 140 136 133 130 129 129 127 125 121 116 111 107 104 102 99 93 87 81 77 75 76 74 73 72 69 67 62 57 54 49 44
216 210 213 226 71 187 162 176 195 186 185 177 186 206 220 201 201 197 202 184 171 160 157 143 139 144 149 167 179 189 188 185 184 174 168 166 167 166 167 164 162 161 160 157 150 145 145 148 147 147 145 147 145 144 144 141 139 135 133 131 130 131 129 126 124 121 115 110 104 103 100 97 90 84 81 77 73 73 73 70 68 66 66 61 55 51 47
231 224 218 219 221 243 208 195 111 178 36 186 214 277 259 160 185 189 193 182 167 158 149 147 145 146 153 183 197 189 189 187 184 179 166 166 167 165 161 159 157 158 155 146 143 147 148 149 148 145 148 147 147 146 143 142 139 138 136 134 135 133 130 128 126 122 119 113 110 105 101 96 92 89 85 81 76 65 67 68 67 64 68 69 65 58 51
193 228 240 220 231 225 219 132 139 160 161 165 187 209 239 172 180 182 187 177 167 163 158 154 151 159 182 209 197 178 183 182 182 177 167 165 162 160 159 157 152 152 150 147 147 147 148 148 149 149 149 149 149 146 145 144 142 141 139 136 137 134 132 131 126 123 118 113 109 105 101 97 94 92 84 79 78 76 76 75 70 70 62 65 65 60 56
197 218 224 234 226 212 111 122 133 147 153 151 203 222 218 152 179 175 180 176 169 167 164 160 168 175 200 215 186 168 174 178 175 170 163 161 159 157 154 152 151 150 147 147 150 151 152 150 150 152 152 153 150 148 147 146 146 143 141 140 135 133 132 129 125 121 120 117 112 107 104 101 97 91 90 83 74 71 67 66 68 67 67 65 61 58 51
202 209 232 244 212 97 105 126 137 138 160 201 220 221 153 109 176 178 182 180 173 165 165 169 185 199 52 12 131 152 167 170 172 163 154 155 154 149 145 145 145 146 151 154 155 154 151 150 153 154 156 153 152 151 149 150 148 144 142 139 137 136 133 132 130 127 126 124 119 112 107 105 101 94 86 83 79 78 74 65 66 68 69 69 67 66 56
222 207 231 233 248 77 116 134 139 156 167 196 220 72 35 173 166 172 182 175 173 172 176 177 173 129 96 131 136 152 162 168 157 151 152 151 151 146 145 148 153 154 156 155 153 152 151 154 155 158 157 155 154 152 154 151 147 144 144 142 141 140 140 136 131 131 127 125 124 118 115 113 108 96 87 82 79 75 69 73 69 64 57 57 59 57 62
231 218 227 226 231 157 167 132 142 228 231 228 62 80 65 16 157 164 170 178 168 173 171 172 124 120 128 136 145 148 152 153 155 154 157 156 151 148 146 150 154 155 156 155 155 154 155 157 158 160 158 156 155 155 155 150 149 149 146 147 146 144 139 135 136 134 134 137 135 131 124 117 108 105 103 93 90 82 86 89 74 72 66 54 53 49 45
221 210 218 227 34 115 161 158 173 186 25 16 2 323 110 114 161 169 169 178 175 176 172 164 149 143 139 145 144 147 153 154 150 152 149 142 137 140 148 153 156 158 154 154 152 153 155 157 160 161 161 158 157 159 153 152 151 149 151 151 149 144 142 142 144 142 144 143 137 136 134 126 113 107 100 97 85 71 60 51 64 59 56 49 45 42 36
228 251 237 79 78 150 167 80 62 24 54 356 359 357 40 140 161 179 183 174 176 180 172 161 154 150 155 152 156 156 160 156 155 155 152 146 147 149 154 156 154 156 156 153 151 153 155 159 162 163 163 159 158 159 153 154 154 156 156 153 151 149 151 149 150 150 150 145 144 135 138 141 134 126 122 144 94 91 79 61 50 49 46 47 36 36 28
2 298 74 67 106 167 168 124 50 45 31 359 332 331 7 91 160 179 189 174 174 178 170 162 163 159 155 154 157 157 156 153 154 150 145 145 146 150 153 154 158 159 154 153 153 153 157 163 164 165 163 161 162 159 154 157 159 158 157 156 156 158 155 152 157 153 154 148 147 138 148 141 132 110 104 101 77 70 70 60 55 46 41 34 33 26 29
200 215 138 187 97 124 197 185 154 81 219 261 317 311 297 115 177 188 191 180 178 171 171 171 163 160 159 154 155 155 156 156 156 153 149 149 152 154 157 156 159 157 152 151 152 154 159 165 165 165 164 164 164 158 158 162 163 161 161 161 162 163 156 156 162 156 154 162 152 153 166 168 149 149 140 126 125 104 62 59 56 48 41 31 25 25 21
231 32 77 71 116 231 197 207 188 204 163 169 205 293 324 255 192 188 173 166 164 168 174 173 163 158 160 157 156 159 160 159 156 154 153 153 155 158 157 157 161 156 155 154 155 158 162 165 165 164 166 167 166 160 162 164 165 165 167 169 170 169 163 162 164 165 165 103 180 159 175 172 165 151 139 119 93 52 35 25 16 34 36 33 23 20 6
232 211 210 165 204 213 203 198 210 204 162 168 163 196 189 183 181 171 163 179 170 174 172 167 162 160 165 162 161 161 161 159 158 156 156 158 157 155 155 159 161 160 159 157 158 160 161 163 162 164 167 169 164 158 162 165 170 170 170 172 177 169 170 168 165 171 167 164 199 173 162 184 168 153 139 157 117 101 59 16 21 4 9 34 33 12 357
235 251 184 162 229 231 170 183 197 196 176 186 170 173 189 188 179 169 168 170 173 178 169 170 167 166 166 166 164 164 164 163 159 158 156 157 155 154 155 158 162 159 159 157 157 157 159 161 163 164 168 163 156 161 167 171 173 173 172 176 183 174 177 174 167 176 182 172 183 185 173 177 160 125 55 10 347 343 105 95 64 25 340 3 10 347 343
259 65 43 314 307 329 56 44 156 186 180 184 191 195 194 187 182 176 168 165 169 176 175 178 174 169 167 167 167 163 165 163 162 163 156 152 150 148 146 148 151 154 155 156 156 157 155 155 154 154 158 160 164 170 174 175 176 177 177 178 183 179 180 185 175 179 182 179 177 186 184 179 179 162 161 161 198 235 342 124 150 170 232 281 315 307 307
80 36 27 326 281 323 47 37 158 170 173 191 195 192 187 188 182 180 182 176 171 170 175 178 183 173 167 166 167 165 163 161 162 161 153 139 135 136 142 148 154 153 155 157 159 155 148 150 155 163 170 172 172 174 175 177 177 181 179 182 183 182 179 183 163 192 181 180 175 189 181 184 187 191 194 169 160 195 202 193 194 199 211 216 231 230 244
21 24 11 57 29 48 72 101 149 135 132 206 195 172 174 174 176 181 183 180 181 173 170 174 175 172 164 164 165 160 149 130 101 105 126 127 129 140 153 159 162 158 158 155 151 147 151 158 167 172 177 174 173 174 175 178 179 185 183 185 187 181 179 175 168 195 197 172 184 182 183 179 191 201 199 196 181 165 189 210 201 195 197 204 208 220 224
6 64 106 95 83 91 106 134 132 149 143 158 148 145 143 173 151 174 181 177 177 177 171 165 161 162 161 156 151 140 136 132 123 120 131 138 147 151 155 154 147 137 142 152 155 159 163 170 174 175 174 172 174 175 177 181 181 185 184 185 185 183 179 170 176 178 194 174 187 182 181 182 192 185 201 207 179 283 185 175 198 230 226 211 204 204 217
134 154 163 160 172 139 202 323 85 140 143 145 158 143 150 140 147 177 162 174 172 172 165 159 150 147 144 146 144 140 129 121 121 130 139 151 156 152 138 122 130 143 155 160 166 170 169 173 174 176 176 175 176 178 181 182 183 181 184 184 184 149 124 174 181 179 187 182 182 186 179 188 181 199 180 187 196 213 249 304 314 228 185 199 207 202 210
168 174 277 309 323 192 153 130 105 126 135 136 143 149 145 147 159 162 161 164 168 162 153 148 141 137 133 132 122 115 123 137 144 142 137 141 142 135 138 140 145 153 159 165 168 164 168 174 176 178 180 179 179 180 183 181 182 182 184 187 186 177 172 191 201 186 188 184 184 186 186 190 195 195 194 192 201 208 217 236 247 238 264 246 173 198 213
172 175 248 327 342 78 105 112 131 129 128 137 155 152 155 159 161 162 161 162 161 156 152 151 147 143 138 139 135 136 137 137 140 146 145 139 138 141 143 144 146 153 161 169 172 165 174 179 183 185 184 180 180 182 183 180 183 184 187 187 193 184 181 188 201 198 195 190 193 191 192 199 198 204 204 211 221 250 242 245 236 277 288 274 283 164 186
164 162 271 26 140 142 142 146 149 153 152 160 168 171 173 170 166 167 163 159 158 158 151 146 143 141 140 142 144 143 144 144 141 137 136 138 144 141 144 145 145 164 172 177 173 168 179 181 184 187 184 180 181 180 180 180 183 186 188 192 198 191 188 188 198 204 198 199 181 126 191 215 222 220 214 215 220 234 250 257 282 297 282 288 260 279 288
152 146 115 140 156 167 170 147 146 156 163 169 177 175 174 176 171 165 164 159 162 154 149 149 145 141 148 148 149 146 141 140 141 143 146 151 153 151 146 155 160 153 146 158 154 162 176 179 182 186 180 178 180 180 180 182 186 186 192 192 201 179 164 171 202 202 198 204 194 199 209 216 227 225 226 239 229 238 234 237 240 244 272 278 281 300 279
151 151 156 169 173 169 152 155 161 163 169 173 176 179 177 176 171 167 161 164 160 153 152 148 147 148 145 142 141 141 140 139 140 144 147 152 155 153 149 152 156 171 180 164 155 169 178 182 184 185 178 179 182 183 183 185 188 190 194 193 199 186 166 165 199 213 219 207 208 206 215 221 223 223 220 223 238 231 238 249 253 259 264 279 286 278 295
158 160 175 180 179 182 175 172 176 172 173 175 180 173 176 182 169 161 159 155 149 152 150 147 142 141 145 146 147 145 144 144 146 147 148 149 152 156 163 168 177 181 186 182 176 180 185 186 185 185 183 182 185 186 187 190 193 195 193 195 200 196 157 177 214 204 212 222 218 223 216 218 227 230 229 232 234 243 254 251 250 249 251 261 268 273 12
190 202 198 183 184 184 182 173 174 172 171 173 172 172 167 167 162 156 152 151 152 152 151 145 138 136 137 142 147 147 147 148 152 158 156 155 153 159 167 174 179 184 191 185 186 190 190 189 186 187 184 184 187 189 191 194 198 200 201 202 201 198 181 184 194 218 213 213 224 221 236 235 233 233 233 224 230 240 243 248 250 256 270 261 255 264 126
234 319 258 184 191 193 177 171 170 172 174 175 173 171 166 161 162 156 149 154 154 151 144 141 135 136 141 145 146 148 154 157 157 156 156 157 159 163 173 177 181 185 192 190 191 193 191 190 190 186 182 184 189 189 193 197 198 205 205 206 203 204 194 191 196 206 219 218 221 224 220 224 228 232 240 245 240 231 233 238 252 260 257 254 256 255 174
230 229 178 169 184 190 172 170 171 172 174 172 168 164 165 163 155 146 155 156 144 140 140 140 141 141 140 141 148 153 153 152 153 154 154 160 162 167 179 188 191 191 192 190 192 194 191 192 184 174 182 184 187 188 194 197 201 207 206 205 204 208 209 204 203 206 213 223 223 226 230 225 237 237 229 232 236 242 243 235 236 233 240 246 251 256 238
217 236 183 169 167 182 173 169 169 172 174 171 165 163 161 159 160 152 148 142 143 139 137 138 145 151 155 163 166 161 151 152 153 162 160 157 166 182 183 189 192 192 188 193 190 191 190 187 145 152 179 188 191 196 189 189 205 204 205 206 212 210 211 211 211 214 211 217 228 228 228 229 225 226 229 239 243 240 238 245 237 237 247 247 247 244 245
156 192 170 166 168 176 176 169 168 173 169 166 164 162 160 158 155 154 153 146 145 146 150 154 160 162 155 138 134 148 153 156 155 154 149 161 174 184 189 190 192 192 195 197 185 184 196 153 144 170 192 198 195 203 171 171 206 212 207 208 213 217 217 220 215 216 222 220 217 228 228 226 226 230 226 226 231 236 239 239 243 249 242 238 235 238 244
143 136 141 143 159 165 154 150 168 173 174 173 168 164 162 157 156 159 157 156 154 155 160 164 157 151 150 156 163 163 159 156 156 155 158 169 182 190 195 197 196 198 196 191 184 191 163 136 172 183 198 204 201 205 166 170 191 209 216 216 216 223 221 221 223 222 220 228 229 226 228 227 231 232 236 232 231 231 232 237 248 243 241 243 243 238 233
162 170 161 158 161 160 168 167 172 175 182 174 167 163 161 163 163 163 159 159 160 163 164 160 162 164 166 170 171 174 172 167 166 167 170 176 184 194 198 201 199 198 194 197 195 195 158 148 172 192 201 205 204 204 168 165 178 208 217 224 220 221 223 223 223 224 223 222 227 229 238 238 235 235 235 238 239 237 240 228 223 234 242 246 246 245 243
179 168 164 173 164 169 170 170 172 175 176 179 176 163 164 171 166 166 166 165 161 169 172 172 174 173 175 177 178 174 169 168 174 178 179 178 187 194 199 198 195 195 193 193 201 170 143 170 187 199 204 205 204 208 183 157 183 206 217 222 223 221 221 220 223 223 224 225 227 227 226 231 233 233 234 237 241 241 237 236 238 234 234 236 239 240 243
176 174 172 172 170 175 176 177 169 169 173 179 171 167 170 171 173 176 171 165 164 174 178 180 183 179 176 176 173 168 167 173 178 185 184 189 190 193 195 202 188 192 165 172 172 142 163 176 190 202 206 205 205 198 172 151 195 205 217 217 222 222 227 222 221 224 225 228 227 229 230 232 233 232 229 231 234 236 240 240 238 236 239 240 244 247 249
171 175 175 180 176 177 178 174 180 176 167 167 169 175 176 179 181 177 170 169 171 177 183 183 173 172 174 174 170 171 170 172 178 185 191 200 200 200 199 198 191 177 148 180 189 190 186 195 197 203 207 209 203 162 162 187 205 209 216 218 222 224 225 226 225 223 223 225 225 231 233 233 230 232 234 234 233 233 234 236 239 240 240 242 244 244 247
178 180 183 182 183 178 182 185 187 181 179 172 172 174 178 181 185 179 172 173 176 180 185 184 180 181 181 180 176 176 174 176 181 185 189 196 202 204 203 204 201 153 159 179 190 201 199 198 202 195 188 201 189 159 183 207 212 212 216 220 223 222 225 225 226 228 228 227 230 232 231 230 236 239 237 236 237 239 240 241 241 240 241 242 245 249 251
183 185 187 190 184 178 189 189 189 187 187 169 165 172 180 185 186 184 178 177 180 180 186 184 179 181 185 184 184 183 179 180 185 183 189 191 196 203 198 218 189 150 174 176 191 204 209 203 193 172 171 186 178 172 200 209 216 219 222 223 226 227 225 226 229 228 230 233 233 234 236 236 233 234 238 241 243 246 245 242 241 244 248 250 252 253 254
187 189 188 186 190 193 194 194 189 195 183 172 172 172 182 190 189 186 185 185 182 182 188 185 181 183 185 184 187 185 182 183 188 191 200 202 200 202 187 187 201 169 165 179 197 203 210 203 178 166 175 184 178 185 214 219 221 223 225 228 229 229 229 231 228 230 231 233 234 235 234 235 237 240 240 242 239 237 239 241 251 253 253 253 253 253 256
189 188 188 191 196 196 191 194 193 193 184 185 186 180 181 188 187 189 188 191 189 188 191 191 189 188 190 191 191 189 190 190 193 198 206 206 206 211 165 172 178 138 156 185 201 206 212 178 169 179 181 180 177 201 212 218 221 226 227 230 231 233 232 233 233 233 232 234 234 238 243 246 248 247 243 240 243 246 246 241 241 245 250 253 254 255 254
189 189 190 193 196 189 187 183 183 194 197 201 202 193 177 182 186 191 188 192 194 194 193 194 193 193 193 196 197 198 195 190 194 196 201 214 212 208 192 191 182 162 172 188 201 213 213 191 178 184 188 174 185 212 214 222 226 228 231 232 233 235 235 234 233 234 237 238 235 235 236 235 237 241 248 250 249 244 243 243 243 244 248 250 250 250 251
191 191 189 191 194 187 188 191 194 199 204 203 206 203 182 185 187 192 190 193 193 193 193 197 197 194 193 197 201 203 204 205 210 209 193 205 210 211 205 176 166 168 181 199 201 210 200 206 196 195 186 180 201 212 222 228 230 232 233 234 235 233 235 237 238 238 239 238 239 238 239 241 244 243 242 240 242 245 245 242 241 243 245 246 248 247 247
188 188 189 191 192 192 194 197 201 203 202 204 205 204 188 186 196 196 195 197 199 201 203 201 201 198 197 193 199 209 208 207 209 220 206 198 206 211 206 195 177 174 188 202 204 210 188 190 199 189 178 196 211 216 222 226 229 227 230 231 232 236 235 233 239 239 243 246 246 244 241 242 243 243 244 247 246 243 240 237 236 233 231 236 243 247 245
187 194 197 195 197 196 198 203 204 202 203 200 209 207 191 200 208 199 196 196 198 200 212 206 204 200 197 196 195 198 200 201 208 216 219 204 205 206 207 207 173 169 188 200 206 214 216 203 203 186 193 207 212 215 219 223 226 226 224 229 229 231 234 226 226 233 233 235 240 243 242 241 239 241 239 239 235 233 232 230 229 230 231 233 232 233 237
197 199 200 196 199 196 199 204 207 207 210 205 207 201 198 205 209 204 199 189 203 201 203 204 201 197 199 195 196 197 197 204 205 198 211 218 205 208 198 202 198 169 184 199 212 215 220 214 192 180 191 202 213 216 217 218 225 229 228 225 229 231 230 233 232 229 231 227 227 235 237 239 240 238 236 236 231 225 226 228 228 228 228 230 233 231 233